Weather Roundup
Issued by NWS Chicago, IL

Home | Current Version | Previous Version | Graphics & Text | Print | Product List | Glossary On
Versions: 1 2 3 4 5 6 7 8 9 10 11 12 13 14 15 16 17 18 19 20 21 22 23 24 25 26 27 28 29 30 31 32 33 34 35 36 37 38 39 40 41 42 43 44 45 46 47 48 49 50
000
NZUS59 KLOT 222004
HRRLOT

CHICAGO AREA WEATHER ROUNDUP
NATIONAL WEATHER SERVICE CHICAGO/ROMEOVILLE IL
300 PM CDT FRI SEP 22 2017

NOTE: "FAIR" INDICATES FEW OR NO CLOUDS BELOW 12,000 FEET WITH NO
SIGNIFICANT WEATHER AND/OR OBSTRUCTIONS TO VISIBILITY.

* THESE STATIONS ARE NOT UNDER NWS QUALITY CONTROL. THEY ALSO MAY NOT
  REPORT WEATHER SUCH AS PRECIPITATION OR FOG.

ILZ005-006-012>014-019>023-222100-
NORTHEAST ILLINOIS

CITY           SKY/WX    TMP DP  RH WIND       PRES   REMARKS
OHARE          MOSUNNY   94  62  34 VRB6      30.03F HX  94
MIDWAY         MOSUNNY   94  66  39 SW3       30.03F HX  97
AURORA         SUNNY     93  66  40 SW6       30.04F HX  96
LANSING*       MOSUNNY   90  69  49 S5        30.05F HX  94
JOLIET*        SUNNY     94  66  39 S6        30.04S HX  96
WAUKEGAN       SUNNY     87  69  54 SE12      30.03F HX  91
DUPAGE AIRPORT SUNNY     93  64  38 SW8       30.03F HX  94
WHEELING       SUNNY     94  64  37 VRB7      30.04F HX  95
NORTHERLY ISL    N/A     84  68  58 E9          N/A  HX  87
$$

WIZ051-052-058>065-066-070>072-222100-
SOUTHEAST WISCONSIN

CITY           SKY/WX    TMP DP  RH WIND       PRES   REMARKS
MILWAUKEE      MOSUNNY   91  70  49 E12       30.02F HX  96
KENOSHA*       SUNNY     95  64  35 SW12      30.03F HX  97
RACINE*        SUNNY     88  69  53 S10       30.05F HX  92
WAUKESHA       SUNNY     91  57  31 SW10      30.04F HX  90
$$

INZ001>003-010>013-019-020-222100-
NORTHWEST INDIANA

CITY           SKY/WX    TMP DP  RH WIND       PRES   REMARKS
GARY*          MOSUNNY   91  61  35 SE7       30.06S HX  91
MICHIGAN CITY* NOT AVBL
RENSSELAER*    NOT AVBL
VALPARAISO     MOSUNNY   94  67  41 SE5       30.06F HX  97
$$

LMZ740>746-222100-
SOUTHERN LAKE MICHIGAN

STATION/POSITION TIME  SKY/WX   TEMP WIND        PRES    VSBY
                                AIR  DIR/SP/G
                 (UTC)          (F)  (DEG/KT/KT) (MB)    (MI)
HARRISON CRIB    1940            83  120/ 17/ 17   N/A
BURNHAM HARBOR   2000            82                N/A
CALUMET HARBOR   1930            91  170/ 10/ 13 1016.7F
BURNS HARBOR     1940            82   40/  9/ 11 1017.9S
MICHIGAN CITY    1940            81   30/  8/  8   N/A
$$

ABBREVIATIONS USED IN REMARKS
   TC - TEMPERATURE IN CELSIUS
  WCI - WIND CHILL INDEX
   HX - HEAT INDEX
  VSB - VISIBILITY
$$




USA.gov is the U.S. government's official web portal to all federal, state and local government web resources and services.